Time,TemperatureF,DewpointF,PressureIn,WindDirection,WindDirectionDegrees,WindSpeedMPH,WindSpeedGustMPH,Humidity,HourlyPrecipIn,Conditions,Clouds,dailyrainin,SoftwareType,DateUTC
2013-01-02 00:00:00,44.0,44.0,29.93,West,270,0.0,0.0,100,0.02,,---,0.39,VWS V14.00,2013-01-02 05:00:00,
2013-01-02 00:01:00,44.0,44.0,29.93,West,270,0.0,0.0,100,0.02,,---,0.00,VWS V14.00,2013-01-02 05:01:00,
2013-01-02 00:02:00,44.0,44.0,29.92,West,270,0.0,0.0,100,0.02,,---,0.00,VWS V14.00,2013-01-02 05:02:00,
2013-01-02 00:05:00,44.0,44.0,29.92,West,270,0.0,0.0,100,0.02,,---,0.00,VWS V14.00,2013-01-02 05:05:00,
2013-01-02 00:10:00,44.0,44.0,29.92,West,270,0.0,0.0,100,0.02,,---,0.00,VWS V14.00,2013-01-02 05:10:00,
2013-01-02 00:15:00,44.0,44.0,29.92,West,270,0.0,0.0,100,0.00,,---,0.00,VWS V14.00,2013-01-02 05:15:00,
2013-01-02 00:20:00,43.8,43.8,29.92,West,270,0.0,0.0,100,0.00,,---,0.00,VWS V14.00,2013-01-02 05:20:00,
2013-01-02 00:25:00,43.8,43.8,29.91,West,270,0.0,0.0,100,0.00,,---,0.00,VWS V14.00,2013-01-02 05:25:00,
2013-01-02 00:30:00,43.8,43.8,29.92,West,270,0.0,0.0,100,0.00,,---,0.00,VWS V14.00,2013-01-02 05:30:00,
2013-01-02 00:35:00,43.8,43.8,29.91,West,270,0.0,0.0,100,0.00,,---,0.00,VWS V14.00,2013-01-02 05:35:00,
2013-01-02 00:40:00,43.8,43.8,29.91,West,270,0.0,0.0,100,0.02,,---,0.02,VWS V14.00,2013-01-02 05:40:00,
2013-01-02 00:45:00,43.8,43.8,29.92,West,270,0.0,0.6,100,0.02,,---,0.02,VWS V14.00,2013-01-02 05:45:00,
2013-01-02 00:50:00,43.8,43.8,29.92,West,270,0.0,0.6,100,0.02,,---,0.02,VWS V14.00,2013-01-02 05:50:00,
2013-01-02 00:55:00,43.8,43.8,29.92,West,270,0.0,1.3,100,0.02,,---,0.02,VWS V14.00,2013-01-02 05:55:00,
2013-01-02 01:00:00,43.8,43.8,29.92,WSW,248,0.0,1.3,100,0.02,,---,0.02,VWS V14.00,2013-01-02 06:00:00,
2013-01-02 01:05:00,43.8,43.8,29.91,WSW,248,0.0,0.6,100,0.04,,---,0.04,VWS V14.00,2013-01-02 06:05:00,
2013-01-02 01:10:00,43.8,43.8,29.90,West,270,0.0,0.6,100,0.04,,---,0.04,VWS V14.00,2013-01-02 06:10:00,
2013-01-02 01:15:00,43.8,43.8,29.89,West,270,0.0,0.0,100,0.04,,---,0.04,VWS V14.00,2013-01-02 06:15:00,
2013-01-02 01:20:00,43.7,43.7,29.88,West,270,0.0,0.0,100,0.04,,---,0.04,VWS V14.00,2013-01-02 06:20:00,
2013-01-02 01:25:00,43.7,43.7,29.90,West,270,0.0,0.0,100,0.06,,---,0.06,VWS V14.00,2013-01-02 06:25:00,
2013-01-02 01:30:00,43.7,43.7,29.89,SSW,202,0.0,1.3,100,0.06,,---,0.06,VWS V14.00,2013-01-02 06:30:00,
2013-01-02 01:35:00,43.7,43.7,29.89,SSW,202,0.0,0.0,100,0.06,,---,0.06,VWS V14.00,2013-01-02 06:35:00,
2013-01-02 01:40:00,43.7,43.7,29.89,SSW,202,0.0,0.0,100,0.04,,---,0.06,VWS V14.00,2013-01-02 06:40:00,
2013-01-02 01:45:00,43.5,43.5,29.88,SSW,202,0.0,0.0,100,0.04,,---,0.06,VWS V14.00,2013-01-02 06:45:00,
2013-01-02 01:50:00,43.5,43.5,29.89,SSW,202,0.0,0.0,100,0.04,,---,0.06,VWS V14.00,2013-01-02 06:50:00,
2013-01-02 01:55:00,43.5,43.5,29.90,SSW,202,0.0,0.0,100,0.04,,---,0.06,VWS V14.00,2013-01-02 06:55:00,
2013-01-02 02:00:00,43.5,43.5,29.90,SSW,202,0.0,0.0,100,0.04,,---,0.06,VWS V14.00,2013-01-02 07:00:00,
2013-01-02 02:05:00,43.5,43.5,29.88,SSW,202,0.0,0.0,100,0.04,,---,0.06,VWS V14.00,2013-01-02 07:05:00,
2013-01-02 02:10:00,43.5,43.5,29.90,SSW,202,0.0,0.0,100,0.02,,---,0.06,VWS V14.00,2013-01-02 07:10:00,
2013-01-02 02:15:00,43.5,43.5,29.89,SSW,202,0.0,0.0,100,0.02,,---,0.06,VWS V14.00,2013-01-02 07:15:00,
2013-01-02 02:20:00,43.5,43.5,29.91,SSW,202,0.0,0.0,100,0.02,,---,0.06,VWS V14.00,2013-01-02 07:20:00,
2013-01-02 02:25:00,43.5,43.5,29.90,SSW,202,0.0,0.0,100,0.02,,---,0.06,VWS V14.00,2013-01-02 07:25:00,
2013-01-02 02:30:00,43.5,43.5,29.90,SW,225,0.0,0.0,100,0.00,,---,0.06,VWS V14.00,2013-01-02 07:30:00,
2013-01-02 02:35:00,43.5,43.5,29.90,WSW,248,0.0,0.0,100,0.00,,---,0.06,VWS V14.00,2013-01-02 07:35:00,
2013-01-02 02:40:00,43.5,43.5,29.90,WSW,248,0.0,0.0,100,0.00,,---,0.06,VWS V14.00,2013-01-02 07:40:00,
2013-01-02 02:45:00,43.5,43.5,29.90,WSW,248,0.0,0.0,100,0.00,,---,0.06,VWS V14.00,2013-01-02 07:45:00,
2013-01-02 02:50:00,43.5,43.5,29.91,West,270,0.0,0.0,100,0.00,,---,0.06,VWS V14.00,2013-01-02 07:50:00,
2013-01-02 02:55:00,43.5,43.5,29.91,West,270,0.0,0.0,100,0.00,,---,0.06,VWS V14.00,2013-01-02 07:55:00,
2013-01-02 03:00:00,43.5,43.5,29.90,West,270,0.0,0.0,100,0.00,,---,0.06,VWS V14.00,2013-01-02 08:00:00,
2013-01-02 03:05:00,43.5,43.5,29.90,West,270,3.3,3.3,100,0.00,,---,0.06,VWS V14.00,2013-01-02 08:05:00,
2013-01-02 03:10:00,43.5,43.5,29.91,West,270,0.6,0.6,100,0.00,,---,0.06,VWS V14.00,2013-01-02 08:10:00,
2013-01-02 03:15:00,43.5,43.5,29.92,WNW,292,1.7,1.7,100,0.00,,---,0.06,VWS V14.00,2013-01-02 08:15:00,
2013-01-02 03:20:00,43.7,43.7,29.92,West,270,1.3,1.3,100,0.00,,---,0.06,VWS V14.00,2013-01-02 08:20:00,
2013-01-02 03:25:00,43.7,43.7,29.92,WNW,292,0.4,2.0,100,0.00,,---,0.06,VWS V14.00,2013-01-02 08:25:00,
2013-01-02 03:31:00,43.7,43.7,29.92,WNW,292,1.7,1.7,100,0.00,,---,0.06,VWS V14.00,2013-01-02 08:31:00,
2013-01-02 03:35:00,43.8,43.8,29.92,West,270,1.3,1.7,100,0.00,,---,0.06,VWS V14.00,2013-01-02 08:35:00,
2013-01-02 03:41:00,43.8,43.8,29.93,WNW,292,3.3,3.3,100,0.00,,---,0.06,VWS V14.00,2013-01-02 08:41:00,
2013-01-02 03:46:00,43.7,43.7,29.92,NNW,338,3.5,3.8,100,0.00,,---,0.06,VWS V14.00,2013-01-02 08:46:00,
2013-01-02 03:51:00,43.5,43.5,29.92,North,0,0.2,0.2,100,0.00,,---,0.06,VWS V14.00,2013-01-02 08:51:00,
2013-01-02 03:56:00,43.3,43.3,29.92,West,270,5.3,5.3,100,0.00,,---,0.06,VWS V14.00,2013-01-02 08:56:00,
2013-01-02 04:01:00,43.1,43.1,29.93,NW,315,0.6,0.6,100,0.00,,---,0.06,VWS V14.00,2013-01-02 09:01:00,
2013-01-02 04:06:00,42.8,42.8,29.93,West,270,0.0,1.3,100,0.00,,---,0.06,VWS V14.00,2013-01-02 09:06:00,
2013-01-02 04:11:00,42.6,42.6,29.92,ENE,68,0.0,0.0,100,0.00,,---,0.06,VWS V14.00,2013-01-02 09:11:00,
2013-01-02 04:16:00,42.4,42.4,29.93,West,270,3.5,3.5,100,0.00,,---,0.06,VWS V14.00,2013-01-02 09:16:00,
2013-01-02 04:21:00,42.2,42.2,29.92,WNW,292,2.9,2.9,100,0.00,,---,0.06,VWS V14.00,2013-01-02 09:21:00,
2013-01-02 04:26:00,42.0,41.7,29.93,West,270,1.1,2.9,99,0.00,,---,0.06,VWS V14.00,2013-01-02 09:26:00,
2013-01-02 04:31:00,42.0,41.7,29.93,West,270,0.0,0.0,99,0.00,,---,0.06,VWS V14.00,2013-01-02 09:31:00,
2013-01-02 04:36:00,41.9,41.6,29.93,WNW,292,0.0,0.0,99,0.00,,---,0.06,VWS V14.00,2013-01-02 09:36:00,
2013-01-02 04:41:00,41.7,41.4,29.93,West,270,0.8,0.8,99,0.00,,---,0.06,VWS V14.00,2013-01-02 09:41:00,
2013-01-02 04:46:00,41.7,41.4,29.93,West,270,0.0,3.8,99,0.00,,---,0.06,VWS V14.00,2013-01-02 09:46:00,
2013-01-02 04:51:00,41.5,41.2,29.93,West,270,3.5,3.5,99,0.00,,---,0.06,VWS V14.00,2013-01-02 09:51:00,
2013-01-02 04:56:00,41.5,41.2,29.93,WNW,292,0.0,3.5,99,0.00,,---,0.06,VWS V14.00,2013-01-02 09:56:00,
2013-01-02 05:01:00,41.5,41.2,29.93,WNW,292,1.1,1.1,99,0.00,,---,0.06,VWS V14.00,2013-01-02 10:01:00,
2013-01-02 05:06:00,41.3,41.0,29.94,West,270,0.0,2.4,99,0.00,,---,0.06,VWS V14.00,2013-01-02 10:06:00,
2013-01-02 05:11:00,41.3,41.0,29.94,NW,315,0.0,0.0,99,0.00,,---,0.06,VWS V14.00,2013-01-02 10:11:00,
2013-01-02 05:16:00,41.3,41.0,29.94,West,270,2.4,6.2,99,0.00,,---,0.06,VWS V14.00,2013-01-02 10:16:00,
2013-01-02 05:21:00,41.1,40.8,29.94,WNW,292,0.0,0.0,99,0.00,,---,0.06,VWS V14.00,2013-01-02 10:21:00,
2013-01-02 05:26:00,41.1,40.8,29.95,WNW,292,2.2,2.2,99,0.00,,---,0.06,VWS V14.00,2013-01-02 10:26:00,
2013-01-02 05:31:00,41.1,40.8,29.95,WNW,292,2.4,2.4,99,0.00,,---,0.06,VWS V14.00,2013-01-02 10:31:00,
2013-01-02 05:36:00,41.1,40.8,29.95,WNW,292,0.0,2.4,99,0.00,,---,0.06,VWS V14.00,2013-01-02 10:36:00,
2013-01-02 05:41:00,41.0,40.7,29.95,West,270,2.0,2.0,99,0.00,,---,0.06,VWS V14.00,2013-01-02 10:41:00,
2013-01-02 05:46:00,41.0,40.7,29.94,WNW,292,2.2,3.3,99,0.00,,---,0.06,VWS V14.00,2013-01-02 10:46:00,
2013-01-02 05:51:00,41.0,40.7,29.93,West,270,1.5,1.5,99,0.00,,---,0.06,VWS V14.00,2013-01-02 10:51:00,
2013-01-02 05:56:00,40.8,40.5,29.94,West,270,2.4,5.5,99,0.00,,---,0.06,VWS V14.00,2013-01-02 10:56:00,
2013-01-02 06:01:00,41.0,40.7,29.95,West,270,0.0,0.0,99,0.00,,---,0.06,VWS V14.00,2013-01-02 11:01:00,
2013-01-02 06:06:00,40.8,40.5,29.95,West,270,0.0,0.0,99,0.00,,---,0.06,VWS V14.00,2013-01-02 11:06:00,
2013-01-02 06:11:00,40.8,40.5,29.94,West,270,0.0,0.0,99,0.00,,---,0.06,VWS V14.00,2013-01-02 11:11:00,
2013-01-02 06:16:00,40.8,40.5,29.93,West,270,0.0,0.0,99,0.00,,---,0.06,VWS V14.00,2013-01-02 11:16:00,
2013-01-02 06:21:00,40.8,40.3,29.94,West,270,0.0,0.0,98,0.00,,---,0.06,VWS V14.00,2013-01-02 11:21:00,
2013-01-02 06:26:00,40.8,40.3,29.94,West,270,0.0,0.6,98,0.00,,---,0.06,VWS V14.00,2013-01-02 11:26:00,
2013-01-02 06:31:00,40.8,40.3,29.94,West,270,0.0,0.0,98,0.00,,---,0.06,VWS V14.00,2013-01-02 11:31:00,
2013-01-02 06:36:00,40.8,40.3,29.94,West,270,0.0,0.0,98,0.00,,---,0.06,VWS V14.00,2013-01-02 11:36:00,
2013-01-02 06:41:00,40.6,40.1,29.94,West,270,0.0,0.0,98,0.00,,---,0.06,VWS V14.00,2013-01-02 11:41:00,
2013-01-02 06:46:00,40.2,39.7,29.95,West,270,0.0,0.8,98,0.00,,---,0.06,VWS V14.00,2013-01-02 11:46:00,
2013-01-02 06:52:00,39.9,39.4,29.95,West,270,0.0,0.0,98,0.00,,---,0.06,VWS V14.00,2013-01-02 11:52:00,
2013-01-02 06:57:00,39.7,39.2,29.95,West,270,0.0,0.0,98,0.00,,---,0.06,VWS V14.00,2013-01-02 11:57:00,
2013-01-02 07:02:00,39.5,39.0,29.95,West,270,0.0,0.0,98,0.00,,---,0.06,VWS V14.00,2013-01-02 12:02:00,
2013-01-02 07:07:00,39.3,38.8,29.95,West,270,0.0,0.0,98,0.00,,---,0.06,VWS V14.00,2013-01-02 12:07:00,
2013-01-02 07:12:00,39.3,38.8,29.96,West,270,0.0,0.0,98,0.00,,---,0.06,VWS V14.00,2013-01-02 12:12:00,
2013-01-02 07:17:00,39.3,38.8,29.96,West,270,0.0,0.0,98,0.00,,---,0.06,VWS V14.00,2013-01-02 12:17:00,
2013-01-02 07:22:00,39.3,38.8,29.96,West,270,0.0,0.0,98,0.00,,---,0.06,VWS V14.00,2013-01-02 12:22:00,
2013-01-02 07:27:00,39.3,38.8,29.97,West,270,0.0,0.0,98,0.00,,---,0.06,VWS V14.00,2013-01-02 12:27:00,
2013-01-02 07:32:00,39.0,38.5,29.97,West,270,0.0,0.0,98,0.00,,---,0.06,VWS V14.00,2013-01-02 12:32:00,
2013-01-02 07:37:00,39.0,38.5,29.97,West,270,0.0,0.0,98,0.00,,---,0.06,VWS V14.00,2013-01-02 12:37:00,
2013-01-02 07:42:00,39.0,38.5,29.97,West,270,2.0,2.0,98,0.00,,---,0.06,VWS V14.00,2013-01-02 12:42:00,
2013-01-02 07:47:00,39.3,39.0,29.98,North,0,0.0,2.0,99,0.00,,---,0.06,VWS V14.00,2013-01-02 12:47:00,
2013-01-02 07:52:00,39.3,39.0,29.98,ENE,68,4.0,4.0,99,0.00,,---,0.06,VWS V14.00,2013-01-02 12:52:00,
2013-01-02 07:57:00,39.3,39.0,29.98,WNW,292,4.0,4.0,99,0.00,,---,0.06,VWS V14.00,2013-01-02 12:57:00,
2013-01-02 08:02:00,39.3,39.0,29.98,NW,315,1.5,1.5,99,0.00,,---,0.06,VWS V14.00,2013-01-02 13:02:00,
2013-01-02 08:07:00,39.3,39.0,29.98,West,270,0.0,2.0,99,0.00,,---,0.06,VWS V14.00,2013-01-02 13:07:00,
2013-01-02 08:12:00,39.5,39.2,29.98,West,270,2.4,2.4,99,0.00,,---,0.06,VWS V14.00,2013-01-02 13:12:00,
2013-01-02 08:17:00,39.3,39.0,29.98,West,270,0.0,3.3,99,0.00,,---,0.06,VWS V14.00,2013-01-02 13:17:00,
2013-01-02 08:22:00,39.5,39.2,29.99,NNE,22,0.0,0.0,99,0.00,,---,0.06,VWS V14.00,2013-01-02 13:22:00,
2013-01-02 08:27:00,39.3,39.0,29.99,WNW,292,0.0,1.1,99,0.00,,---,0.06,VWS V14.00,2013-01-02 13:27:00,
2013-01-02 08:32:00,39.5,39.2,30.00,West,270,0.0,0.0,99,0.00,,---,0.06,VWS V14.00,2013-01-02 13:32:00,
2013-01-02 08:37:00,39.3,39.0,29.99,NNE,22,2.6,2.6,99,0.00,,---,0.06,VWS V14.00,2013-01-02 13:37:00,
2013-01-02 08:42:00,39.3,38.8,29.99,WNW,292,2.4,2.4,98,0.00,,---,0.06,VWS V14.00,2013-01-02 13:42:00,
2013-01-02 08:47:00,39.3,38.8,30.01,West,270,0.0,2.4,98,0.00,,---,0.06,VWS V14.00,2013-01-02 13:47:00,
2013-01-02 08:52:00,39.3,38.8,30.00,WNW,292,2.9,2.9,98,0.00,,---,0.06,VWS V14.00,2013-01-02 13:52:00,
2013-01-02 08:57:00,39.3,38.8,30.01,WNW,292,0.0,2.9,98,0.00,,---,0.06,VWS V14.00,2013-01-02 13:57:00,
2013-01-02 09:02:00,39.5,39.0,30.02,West,270,0.6,0.6,98,0.00,,---,0.06,VWS V14.00,2013-01-02 14:02:00,
2013-01-02 09:07:00,39.7,39.2,30.02,WNW,292,0.0,3.1,98,0.00,,---,0.06,VWS V14.00,2013-01-02 14:07:00,
2013-01-02 09:12:00,39.7,39.2,30.02,WSW,248,0.0,0.6,98,0.00,,---,0.06,VWS V14.00,2013-01-02 14:12:00,
2013-01-02 09:17:00,39.9,39.4,30.02,West,270,0.0,1.1,98,0.00,,---,0.06,VWS V14.00,2013-01-02 14:17:00,
2013-01-02 09:22:00,40.1,39.6,30.02,NW,315,0.6,1.5,98,0.00,,---,0.06,VWS V14.00,2013-01-02 14:22:00,
2013-01-02 09:27:00,39.9,39.1,30.03,WNW,292,0.8,1.5,97,0.00,,---,0.06,VWS V14.00,2013-01-02 14:27:00,
2013-01-02 09:32:00,39.7,38.9,30.02,NW,315,0.0,0.0,97,0.00,,---,0.06,VWS V14.00,2013-01-02 14:32:00,
2013-01-02 09:37:00,39.9,39.1,30.01,ENE,68,0.0,2.9,97,0.00,,---,0.06,VWS V14.00,2013-01-02 14:37:00,
2013-01-02 09:42:00,39.9,38.8,30.02,North,0,0.0,5.8,96,0.00,,---,0.06,VWS V14.00,2013-01-02 14:42:00,
2013-01-02 09:47:00,39.9,38.8,30.03,East,90,1.1,5.8,96,0.00,,---,0.06,VWS V14.00,2013-01-02 14:47:00,
2013-01-02 09:52:00,39.9,38.6,30.03,ENE,68,0.0,7.3,95,0.00,,---,0.06,VWS V14.00,2013-01-02 14:52:00,
2013-01-02 09:57:00,40.1,38.8,30.03,West,270,0.0,7.3,95,0.00,,---,0.06,VWS V14.00,2013-01-02 14:57:00,
2013-01-02 10:02:00,40.2,38.9,30.03,West,270,0.8,4.6,95,0.00,,---,0.06,VWS V14.00,2013-01-02 15:02:00,
2013-01-02 10:08:00,40.6,39.3,30.05,WNW,292,3.1,4.6,95,0.00,,---,0.06,VWS V14.00,2013-01-02 15:08:00,
2013-01-02 10:13:00,40.8,39.5,30.05,NNE,22,0.0,5.3,95,0.00,,---,0.06,VWS V14.00,2013-01-02 15:13:00,
2013-01-02 10:18:00,40.8,39.2,30.03,NNE,22,2.0,5.3,94,0.00,,---,0.06,VWS V14.00,2013-01-02 15:18:00,
2013-01-02 10:23:00,41.1,39.5,30.04,West,270,0.4,1.7,94,0.00,,---,0.06,VWS V14.00,2013-01-02 15:23:00,
2013-01-02 10:28:00,41.5,39.9,30.04,West,270,3.5,3.5,94,0.00,,---,0.06,VWS V14.00,2013-01-02 15:28:00,
2013-01-02 10:33:00,41.7,39.8,30.03,West,270,0.0,2.0,93,0.00,,---,0.06,VWS V14.00,2013-01-02 15:33:00,
2013-01-02 10:38:00,42.0,40.1,30.03,WNW,292,1.7,2.0,93,0.00,,---,0.06,VWS V14.00,2013-01-02 15:38:00,
2013-01-02 10:43:00,42.4,40.2,30.06,West,270,0.0,3.3,92,0.00,,---,0.06,VWS V14.00,2013-01-02 15:43:00,
2013-01-02 10:48:00,42.6,40.4,30.05,NE,45,2.6,3.3,92,0.00,,---,0.06,VWS V14.00,2013-01-02 15:48:00,
2013-01-02 10:53:00,42.9,40.5,30.03,NE,45,3.8,3.8,91,0.00,,---,0.06,VWS V14.00,2013-01-02 15:53:00,
2013-01-02 10:58:00,43.3,40.8,30.03,NE,45,1.1,3.8,91,0.00,,---,0.06,VWS V14.00,2013-01-02 15:58:00,
2013-01-02 11:03:00,43.5,41.0,30.04,WNW,292,3.8,3.8,91,0.00,,---,0.06,VWS V14.00,2013-01-02 16:03:00,
2013-01-02 11:08:00,44.0,41.3,30.03,ENE,68,1.1,3.8,90,0.00,,---,0.06,VWS V14.00,2013-01-02 16:08:00,
2013-01-02 11:13:00,44.2,41.5,30.03,WNW,292,3.8,3.8,90,0.00,,---,0.06,VWS V14.00,2013-01-02 16:13:00,
2013-01-02 11:18:00,44.4,41.4,30.03,WNW,292,0.4,3.8,89,0.00,,---,0.06,VWS V14.00,2013-01-02 16:18:00,
2013-01-02 11:23:00,44.6,41.6,30.03,West,270,0.0,5.8,89,0.00,,---,0.06,VWS V14.00,2013-01-02 16:23:00,
2013-01-02 11:28:00,44.4,41.1,30.03,WNW,292,0.0,5.8,88,0.00,,---,0.06,VWS V14.00,2013-01-02 16:28:00,
2013-01-02 11:33:00,44.4,41.1,30.03,NE,45,2.9,2.9,88,0.00,,---,0.06,VWS V14.00,2013-01-02 16:33:00,
2013-01-02 11:38:00,44.7,41.4,30.03,West,270,0.6,2.9,88,0.00,,---,0.06,VWS V14.00,2013-01-02 16:38:00,
2013-01-02 11:43:00,45.1,41.8,30.02,West,270,0.0,0.0,88,0.00,,---,0.06,VWS V14.00,2013-01-02 16:43:00,
2013-01-02 11:48:00,45.3,41.7,30.02,WNW,292,2.0,2.4,87,0.00,,---,0.06,VWS V14.00,2013-01-02 16:48:00,
2013-01-02 11:53:00,45.1,41.2,30.01,WNW,292,0.0,0.0,86,0.00,,---,0.06,VWS V14.00,2013-01-02 16:53:00,
2013-01-02 11:58:00,45.3,41.4,30.02,WNW,292,5.3,5.3,86,0.00,,---,0.06,VWS V14.00,2013-01-02 16:58:00,
2013-01-02 12:03:00,45.1,40.9,30.02,WNW,292,2.4,4.6,85,0.00,,---,0.06,VWS V14.00,2013-01-02 17:03:00,
2013-01-02 12:08:00,45.1,40.9,30.02,WNW,292,1.1,4.6,85,0.00,,---,0.06,VWS V14.00,2013-01-02 17:08:00,
2013-01-02 12:13:00,45.1,40.9,30.03,WSW,248,0.0,0.6,85,0.00,,---,0.06,VWS V14.00,2013-01-02 17:13:00,
2013-01-02 12:18:00,45.3,41.1,30.01,West,270,0.0,4.2,85,0.00,,---,0.06,VWS V14.00,2013-01-02 17:18:00,
2013-01-02 12:23:00,45.5,41.3,30.01,NE,45,0.0,0.0,85,0.00,,---,0.06,VWS V14.00,2013-01-02 17:23:00,
2013-01-02 12:28:00,45.3,41.1,30.00,NNE,22,0.0,0.0,85,0.00,,---,0.06,VWS V14.00,2013-01-02 17:28:00,
2013-01-02 12:33:00,45.3,40.8,30.00,NNE,22,0.0,2.0,84,0.00,,---,0.06,VWS V14.00,2013-01-02 17:33:00,
2013-01-02 12:38:00,45.1,40.6,30.00,NE,45,0.0,2.0,84,0.00,,---,0.06,VWS V14.00,2013-01-02 17:38:00,
2013-01-02 12:43:00,45.1,40.9,30.01,NNW,338,0.0,0.0,85,0.00,,---,0.06,VWS V14.00,2013-01-02 17:43:00,
2013-01-02 12:48:00,45.3,41.1,30.00,NE,45,0.0,3.3,85,0.00,,---,0.06,VWS V14.00,2013-01-02 17:48:00,
2013-01-02 12:53:00,45.3,40.8,30.00,ENE,68,0.0,1.5,84,0.00,,---,0.06,VWS V14.00,2013-01-02 17:53:00,
2013-01-02 12:58:00,45.5,41.0,30.00,WNW,292,1.7,1.7,84,0.00,,---,0.06,VWS V14.00,2013-01-02 17:58:00,
2013-01-02 13:03:00,46.0,41.4,30.00,NNW,338,1.5,1.7,84,0.00,,---,0.06,VWS V14.00,2013-01-02 18:03:00,
2013-01-02 13:08:00,46.0,41.4,30.00,West,270,3.3,3.3,84,0.00,,---,0.06,VWS V14.00,2013-01-02 18:08:00,
2013-01-02 13:13:00,46.0,41.4,30.00,West,270,0.0,0.0,84,0.00,,---,0.06,VWS V14.00,2013-01-02 18:13:00,
2013-01-02 13:18:00,46.2,41.6,30.00,WNW,292,1.5,1.5,84,0.00,,---,0.06,VWS V14.00,2013-01-02 18:18:00,
2013-01-02 13:23:00,46.2,41.6,29.99,WNW,292,2.9,2.9,84,0.00,,---,0.06,VWS V14.00,2013-01-02 18:23:00,
2013-01-02 13:28:00,46.4,41.5,30.00,WNW,292,2.6,2.9,83,0.00,,---,0.06,VWS V14.00,2013-01-02 18:28:00,
2013-01-02 13:33:00,46.2,41.6,30.00,West,270,3.1,3.5,84,0.00,,---,0.06,VWS V14.00,2013-01-02 18:33:00,
2013-01-02 13:38:00,46.4,41.8,30.00,West,270,0.0,3.5,84,0.00,,---,0.06,VWS V14.00,2013-01-02 18:38:00,
2013-01-02 13:43:00,46.5,41.6,29.99,West,270,1.7,3.5,83,0.00,,---,0.06,VWS V14.00,2013-01-02 18:43:00,
2013-01-02 13:48:00,46.7,41.8,29.99,West,270,0.0,3.5,83,0.00,,---,0.06,VWS V14.00,2013-01-02 18:48:00,
2013-01-02 13:53:00,46.9,42.0,29.99,WNW,292,4.6,4.6,83,0.00,,---,0.06,VWS V14.00,2013-01-02 18:53:00,
2013-01-02 13:58:00,46.9,41.7,29.98,WNW,292,0.8,4.6,82,0.00,,---,0.06,VWS V14.00,2013-01-02 18:58:00,
2013-01-02 14:04:00,46.5,41.3,29.99,WNW,292,0.0,1.3,82,0.00,,---,0.06,VWS V14.00,2013-01-02 19:04:00,
2013-01-02 14:09:00,46.2,41.0,29.99,WNW,292,0.0,1.3,82,0.00,,---,0.06,VWS V14.00,2013-01-02 19:09:00,
2013-01-02 14:14:00,46.2,41.3,29.99,West,270,2.4,2.9,83,0.00,,---,0.06,VWS V14.00,2013-01-02 19:14:00,
2013-01-02 14:19:00,46.2,41.0,30.00,WNW,292,0.6,2.9,82,0.00,,---,0.06,VWS V14.00,2013-01-02 19:19:00,
2013-01-02 14:24:00,46.0,41.1,29.99,WSW,248,0.0,0.0,83,0.00,,---,0.06,VWS V14.00,2013-01-02 19:24:00,
2013-01-02 14:29:00,46.0,41.1,30.00,West,270,0.0,1.1,83,0.00,,---,0.06,VWS V14.00,2013-01-02 19:29:00,
2013-01-02 14:34:00,46.0,41.1,29.99,WNW,292,0.0,2.6,83,0.00,,---,0.06,VWS V14.00,2013-01-02 19:34:00,
2013-01-02 14:39:00,45.6,40.7,29.99,WNW,292,0.8,2.6,83,0.00,,---,0.06,VWS V14.00,2013-01-02 19:39:00,
2013-01-02 14:44:00,45.5,40.7,30.00,NNE,22,0.0,0.0,83,0.00,,---,0.06,VWS V14.00,2013-01-02 19:44:00,
2013-01-02 14:49:00,45.3,40.5,29.99,NNE,22,2.0,2.0,83,0.00,,---,0.06,VWS V14.00,2013-01-02 19:49:00,
2013-01-02 14:54:00,45.1,39.9,30.00,ENE,68,0.0,1.7,82,0.00,,---,0.06,VWS V14.00,2013-01-02 19:54:00,
2013-01-02 14:59:00,45.3,40.5,29.99,West,270,3.1,3.1,83,0.00,,---,0.06,VWS V14.00,2013-01-02 19:59:00,
2013-01-02 15:04:00,45.3,40.5,29.99,NNE,22,0.0,0.0,83,0.00,,---,0.06,VWS V14.00,2013-01-02 20:04:00,
2013-01-02 15:09:00,45.1,40.2,29.99,NW,315,0.0,1.5,83,0.00,,---,0.06,VWS V14.00,2013-01-02 20:09:00,
2013-01-02 15:14:00,44.9,40.1,29.99,WNW,292,1.3,2.0,83,0.00,,---,0.06,VWS V14.00,2013-01-02 20:14:00,
2013-01-02 15:19:00,44.7,39.9,29.99,West,270,0.0,2.0,83,0.00,,---,0.06,VWS V14.00,2013-01-02 20:19:00,
2013-01-02 15:24:00,44.4,39.6,29.99,WNW,292,0.0,1.1,83,0.00,,---,0.06,VWS V14.00,2013-01-02 20:24:00,
2013-01-02 15:29:00,44.4,39.6,30.00,WNW,292,0.0,1.1,83,0.00,,---,0.06,VWS V14.00,2013-01-02 20:29:00,
2013-01-02 15:34:00,44.2,39.7,30.00,West,270,0.0,2.2,84,0.00,,---,0.06,VWS V14.00,2013-01-02 20:34:00,
2013-01-02 15:39:00,44.4,39.9,30.00,West,270,0.6,2.2,84,0.00,,---,0.06,VWS V14.00,2013-01-02 20:39:00,
2013-01-02 15:44:00,44.2,39.7,30.01,West,270,1.7,1.7,84,0.00,,---,0.06,VWS V14.00,2013-01-02 20:44:00,
2013-01-02 15:49:00,44.4,40.2,30.01,West,270,1.1,1.7,85,0.00,,---,0.06,VWS V14.00,2013-01-02 20:49:00,
2013-01-02 15:54:00,44.2,40.0,30.00,West,270,0.0,2.4,85,0.00,,---,0.06,VWS V14.00,2013-01-02 20:54:00,
2013-01-02 15:59:00,44.2,40.0,30.01,West,270,0.0,2.4,85,0.00,,---,0.06,VWS V14.00,2013-01-02 20:59:00,
2013-01-02 16:04:00,44.0,39.8,30.01,West,270,1.1,1.1,85,0.00,,---,0.06,VWS V14.00,2013-01-02 21:04:00,
2013-01-02 16:09:00,43.7,39.5,30.00,West,270,0.0,1.1,85,0.00,,---,0.06,VWS V14.00,2013-01-02 21:09:00,
2013-01-02 16:14:00,43.5,39.3,30.00,West,270,0.0,0.0,85,0.00,,---,0.06,VWS V14.00,2013-01-02 21:14:00,
2013-01-02 16:19:00,43.5,39.3,30.00,West,270,0.0,0.0,85,0.00,,---,0.06,VWS V14.00,2013-01-02 21:19:00,
2013-01-02 16:24:00,43.3,39.1,30.00,West,270,0.0,0.0,85,0.00,,---,0.06,VWS V14.00,2013-01-02 21:24:00,
2013-01-02 16:29:00,43.3,39.1,30.00,North,0,0.0,0.0,85,0.00,,---,0.06,VWS V14.00,2013-01-02 21:29:00,
2013-01-02 16:35:00,42.9,38.7,30.00,North,0,0.0,0.0,85,0.00,,---,0.06,VWS V14.00,2013-01-02 21:35:00,
2013-01-02 16:40:00,42.9,39.0,30.01,West,270,0.0,0.0,86,0.00,,---,0.06,VWS V14.00,2013-01-02 21:40:00,
2013-01-02 16:45:00,42.6,38.7,30.01,West,270,0.0,0.0,86,0.00,,---,0.06,VWS V14.00,2013-01-02 21:45:00,
2013-01-02 16:50:00,42.6,38.7,30.01,West,270,0.8,0.8,86,0.00,,---,0.06,VWS V14.00,2013-01-02 21:50:00,
2013-01-02 16:55:00,42.4,38.5,30.01,West,270,0.0,0.0,86,0.00,,---,0.06,VWS V14.00,2013-01-02 21:55:00,
2013-01-02 17:00:00,42.2,38.3,30.00,West,270,0.0,0.0,86,0.00,,---,0.06,VWS V14.00,2013-01-02 22:00:00,
2013-01-02 17:05:00,42.0,38.1,30.01,West,270,1.3,1.3,86,0.00,,---,0.06,VWS V14.00,2013-01-02 22:05:00,
2013-01-02 17:10:00,42.0,38.1,30.01,West,270,0.0,1.3,86,0.00,,---,0.06,VWS V14.00,2013-01-02 22:10:00,
2013-01-02 17:15:00,41.9,38.0,30.01,West,270,0.0,0.0,86,0.00,,---,0.06,VWS V14.00,2013-01-02 22:15:00,
2013-01-02 17:20:00,41.7,37.8,30.02,West,270,1.3,1.3,86,0.00,,---,0.06,VWS V14.00,2013-01-02 22:20:00,
2013-01-02 17:25:00,41.7,38.1,30.03,West,270,0.0,0.6,87,0.00,,---,0.06,VWS V14.00,2013-01-02 22:25:00,
2013-01-02 17:30:00,41.5,37.9,30.02,West,270,0.0,0.6,87,0.00,,---,0.06,VWS V14.00,2013-01-02 22:30:00,
2013-01-02 17:35:00,41.5,37.9,30.02,West,270,0.0,0.0,87,0.00,,---,0.06,VWS V14.00,2013-01-02 22:35:00,
2013-01-02 17:40:00,41.3,37.7,30.02,West,270,0.0,0.6,87,0.00,,---,0.06,VWS V14.00,2013-01-02 22:40:00,
2013-01-02 17:45:00,41.1,37.5,30.02,West,270,0.0,0.0,87,0.00,,---,0.06,VWS V14.00,2013-01-02 22:45:00,
2013-01-02 17:50:00,41.1,37.5,30.03,West,270,1.7,1.7,87,0.00,,---,0.06,VWS V14.00,2013-01-02 22:50:00,
2013-01-02 17:55:00,41.0,37.4,30.03,West,270,0.0,1.7,87,0.00,,---,0.06,VWS V14.00,2013-01-02 22:55:00,
2013-01-02 18:00:00,40.8,37.2,30.03,West,270,0.0,1.7,87,0.00,,---,0.06,VWS V14.00,2013-01-02 23:00:00,
2013-01-02 18:05:00,40.8,37.5,30.03,WNW,292,1.7,1.7,88,0.00,,---,0.06,VWS V14.00,2013-01-02 23:05:00,
2013-01-02 18:10:00,40.8,37.5,30.04,WNW,292,0.2,1.7,88,0.00,,---,0.06,VWS V14.00,2013-01-02 23:10:00,
2013-01-02 18:15:00,40.6,37.3,30.05,West,270,0.0,1.1,88,0.00,,---,0.06,VWS V14.00,2013-01-02 23:15:00,
2013-01-02 18:20:00,40.4,37.1,30.04,West,270,0.0,1.1,88,0.00,,---,0.06,VWS V14.00,2013-01-02 23:20:00,
2013-01-02 18:25:00,40.4,37.1,30.04,West,270,0.0,0.0,88,0.00,,---,0.06,VWS V14.00,2013-01-02 23:25:00,
2013-01-02 18:30:00,40.4,37.1,30.03,West,270,0.0,0.0,88,0.00,,---,0.06,VWS V14.00,2013-01-02 23:30:00,
2013-01-02 18:35:00,40.2,36.9,30.03,West,270,0.0,0.0,88,0.00,,---,0.06,VWS V14.00,2013-01-02 23:35:00,
2013-01-02 18:40:00,40.2,36.9,30.03,West,270,0.0,0.0,88,0.00,,---,0.06,VWS V14.00,2013-01-02 23:40:00,
2013-01-02 18:45:00,40.2,37.2,30.05,West,270,0.0,0.0,89,0.00,,---,0.06,VWS V14.00,2013-01-02 23:45:00,
2013-01-02 18:50:00,40.1,37.1,30.05,WNW,292,2.4,2.4,89,0.00,,---,0.00,VWS V14.00,2013-01-02 23:50:00,
2013-01-02 18:55:00,39.9,36.9,30.05,WNW,292,0.0,2.6,89,0.00,,---,0.00,VWS V14.00,2013-01-02 23:55:00,
2013-01-02 19:00:00,39.9,36.9,30.04,West,270,1.7,1.7,89,0.00,,---,0.00,VWS V14.00,2013-01-03 00:00:00,
2013-01-02 19:05:00,39.9,36.9,30.04,West,270,0.0,1.7,89,0.00,,---,0.00,VWS V14.00,2013-01-03 00:05:00,
2013-01-02 19:10:00,39.7,36.7,30.03,West,270,0.0,0.0,89,0.00,,---,0.00,VWS V14.00,2013-01-03 00:10:00,
2013-01-02 19:15:00,39.7,36.7,30.04,WSW,248,0.0,0.0,89,0.00,,---,0.00,VWS V14.00,2013-01-03 00:15:00,
2013-01-02 19:20:00,39.3,36.3,30.03,WSW,248,0.0,0.0,89,0.00,,---,0.00,VWS V14.00,2013-01-03 00:20:00,
2013-01-02 19:25:00,39.3,36.3,30.04,WSW,248,0.0,0.0,89,0.00,,---,0.00,VWS V14.00,2013-01-03 00:25:00,
2013-01-02 19:31:00,39.0,36.0,30.04,WSW,248,0.0,0.0,89,0.00,,---,0.00,VWS V14.00,2013-01-03 00:31:00,
2013-01-02 19:36:00,39.0,36.3,30.04,WSW,248,0.0,0.0,90,0.00,,---,0.00,VWS V14.00,2013-01-03 00:36:00,
2013-01-02 19:41:00,38.8,36.1,30.05,West,270,1.7,1.7,90,0.00,,---,0.00,VWS V14.00,2013-01-03 00:41:00,
2013-01-02 19:46:00,38.8,36.1,30.05,WSW,248,0.0,1.7,90,0.00,,---,0.00,VWS V14.00,2013-01-03 00:46:00,
2013-01-02 19:51:00,38.8,36.1,30.05,WSW,248,0.0,0.0,90,0.00,,---,0.00,VWS V14.00,2013-01-03 00:51:00,
2013-01-02 19:56:00,38.4,35.7,30.05,West,270,0.0,0.0,90,0.00,,---,0.00,VWS V14.00,2013-01-03 00:56:00,
2013-01-02 20:01:00,38.4,35.7,30.05,West,270,1.5,2.9,90,0.00,,---,0.00,VWS V14.00,2013-01-03 01:01:00,
2013-01-02 20:06:00,38.3,35.6,30.06,West,270,0.0,2.9,90,0.00,,---,0.00,VWS V14.00,2013-01-03 01:06:00,
2013-01-02 20:11:00,38.3,35.6,30.06,West,270,0.0,0.0,90,0.00,,---,0.00,VWS V14.00,2013-01-03 01:11:00,
2013-01-02 20:17:00,38.4,36.0,30.07,West,270,0.0,0.0,91,0.00,,---,0.00,VWS V14.00,2013-01-03 01:17:00,
2013-01-02 20:22:00,38.4,36.0,30.05,WSW,248,0.0,0.0,91,0.00,,---,0.00,VWS V14.00,2013-01-03 01:22:00,
2013-01-02 20:27:00,38.4,36.0,30.05,WSW,248,0.0,1.5,91,0.00,,---,0.00,VWS V14.00,2013-01-03 01:27:00,
2013-01-02 20:32:00,38.3,35.9,30.06,WSW,248,0.0,0.0,91,0.00,,---,0.00,VWS V14.00,2013-01-03 01:32:00,
2013-01-02 20:36:00,38.3,35.9,30.07,WSW,248,0.0,0.0,91,0.00,,---,0.00,VWS V14.00,2013-01-03 01:36:00,
2013-01-02 20:41:00,38.3,35.9,30.07,WSW,248,0.0,0.0,91,0.00,,---,0.00,VWS V14.00,2013-01-03 01:41:00,
2013-01-02 20:47:00,38.3,35.9,30.06,WSW,248,0.0,0.0,91,0.00,,---,0.00,VWS V14.00,2013-01-03 01:47:00,
2013-01-02 20:52:00,38.3,35.9,30.06,WSW,248,0.0,0.0,91,0.00,,---,0.00,VWS V14.00,2013-01-03 01:52:00,
2013-01-02 20:57:00,38.3,35.9,30.06,SSW,202,0.0,0.0,91,0.00,,---,0.00,VWS V14.00,2013-01-03 01:57:00,
2013-01-02 21:02:00,38.1,35.7,30.06,South,180,0.0,0.0,91,0.00,,---,0.00,VWS V14.00,2013-01-03 02:02:00,
2013-01-02 21:07:00,38.1,35.7,30.05,SSE,158,0.0,0.0,91,0.00,,---,0.00,VWS V14.00,2013-01-03 02:07:00,
2013-01-02 21:12:00,38.1,35.7,30.05,SSE,158,0.0,0.0,91,0.00,,---,0.00,VWS V14.00,2013-01-03 02:12:00,
2013-01-02 21:17:00,38.1,35.7,30.05,ESE,112,0.0,0.0,91,0.00,,---,0.00,VWS V14.00,2013-01-03 02:17:00,
2013-01-02 21:22:00,37.9,35.8,30.06,ESE,112,0.0,0.0,92,0.00,,---,0.00,VWS V14.00,2013-01-03 02:22:00,
2013-01-02 21:27:00,37.9,35.8,30.07,ESE,112,0.0,0.0,92,0.00,,---,0.00,VWS V14.00,2013-01-03 02:27:00,
2013-01-02 21:32:00,37.9,35.8,30.07,ESE,112,0.0,0.0,92,0.00,,---,0.00,VWS V14.00,2013-01-03 02:32:00,
2013-01-02 21:37:00,37.9,35.8,30.06,ESE,112,0.0,0.0,92,0.00,,---,0.00,VWS V14.00,2013-01-03 02:37:00,
2013-01-02 21:42:00,37.9,35.8,30.07,ESE,112,0.0,0.0,92,0.00,,---,0.00,VWS V14.00,2013-01-03 02:42:00,
2013-01-02 21:47:00,37.9,35.8,30.08,ESE,112,0.0,0.0,92,0.00,,---,0.00,VWS V14.00,2013-01-03 02:47:00,
2013-01-02 21:52:00,37.9,35.8,30.08,ESE,112,0.0,0.0,92,0.00,,---,0.00,VWS V14.00,2013-01-03 02:52:00,
2013-01-02 21:57:00,37.9,35.8,30.08,ESE,112,0.0,0.0,92,0.00,,---,0.00,VWS V14.00,2013-01-03 02:57:00,
2013-01-02 22:02:00,37.9,35.8,30.08,ESE,112,0.0,0.0,92,0.00,,---,0.00,VWS V14.00,2013-01-03 03:02:00,
2013-01-02 22:07:00,37.9,35.8,30.08,SSE,158,0.0,0.0,92,0.00,,---,0.00,VWS V14.00,2013-01-03 03:07:00,
2013-01-02 22:12:00,38.1,36.0,30.08,SSE,158,0.0,0.0,92,0.00,,---,0.00,VWS V14.00,2013-01-03 03:12:00,
2013-01-02 22:17:00,38.1,36.0,30.08,SSE,158,0.0,0.0,92,0.00,,---,0.00,VWS V14.00,2013-01-03 03:17:00,
2013-01-02 22:22:00,38.1,36.0,30.08,SSE,158,0.0,0.0,92,0.00,,---,0.00,VWS V14.00,2013-01-03 03:22:00,
2013-01-02 22:27:00,38.3,36.2,30.08,SSE,158,0.0,0.0,92,0.00,,---,0.00,VWS V14.00,2013-01-03 03:27:00,
2013-01-02 22:32:00,38.3,36.2,30.08,SSE,158,0.0,0.0,92,0.00,,---,0.00,VWS V14.00,2013-01-03 03:32:00,
2013-01-02 22:37:00,38.3,36.2,30.08,SSE,158,0.0,0.0,92,0.00,,---,0.00,VWS V14.00,2013-01-03 03:37:00,
2013-01-02 22:42:00,38.3,36.2,30.08,SSE,158,0.0,0.0,92,0.00,,---,0.00,VWS V14.00,2013-01-03 03:42:00,
2013-01-02 22:47:00,38.4,36.3,30.08,SSE,158,0.0,0.0,92,0.00,,---,0.00,VWS V14.00,2013-01-03 03:47:00,
2013-01-02 22:52:00,38.4,36.3,30.07,SSE,158,0.0,0.0,92,0.00,,---,0.00,VWS V14.00,2013-01-03 03:52:00,
2013-01-02 22:57:00,38.4,36.3,30.08,SSE,158,0.0,0.0,92,0.00,,---,0.00,VWS V14.00,2013-01-03 03:57:00,
2013-01-02 23:02:00,38.4,36.3,30.07,SSE,158,0.0,0.0,92,0.00,,---,0.00,VWS V14.00,2013-01-03 04:02:00,
2013-01-02 23:07:00,38.4,36.3,30.07,SSE,158,0.0,0.0,92,0.00,,---,0.00,VWS V14.00,2013-01-03 04:07:00,
2013-01-02 23:12:00,38.4,36.3,30.07,SSE,158,0.0,0.0,92,0.00,,---,0.00,VWS V14.00,2013-01-03 04:12:00,
2013-01-02 23:17:00,38.4,36.3,30.06,SSE,158,0.0,0.0,92,0.00,,---,0.00,VWS V14.00,2013-01-03 04:17:00,
2013-01-02 23:22:00,38.4,36.3,30.06,SSE,158,0.0,0.0,92,0.00,,---,0.00,VWS V14.00,2013-01-03 04:22:00,
2013-01-02 23:28:00,38.4,36.3,30.06,SSE,158,0.0,0.0,92,0.00,,---,0.00,VWS V14.00,2013-01-03 04:28:00,
2013-01-02 23:33:00,38.4,36.6,30.06,SSE,158,0.0,0.0,93,0.00,,---,0.00,VWS V14.00,2013-01-03 04:33:00,
2013-01-02 23:38:00,38.4,36.6,30.06,SSE,158,0.0,0.0,93,0.00,,---,0.00,VWS V14.00,2013-01-03 04:38:00,
2013-01-02 23:43:00,38.4,36.6,30.06,SSE,158,0.0,0.0,93,0.00,,---,0.00,VWS V14.00,2013-01-03 04:43:00,
2013-01-02 23:48:00,38.4,36.6,30.06,SSE,158,0.0,0.0,93,0.00,,---,0.00,VWS V14.00,2013-01-03 04:48:00,
2013-01-02 23:53:00,38.4,36.6,30.06,SSE,158,0.0,0.0,93,0.00,,---,0.00,VWS V14.00,2013-01-03 04:53:00,
2013-01-02 23:58:00,38.6,36.8,30.05,SSE,158,0.0,0.0,93,0.00,,---,0.00,VWS V14.00,2013-01-03 04:58:00,